Weather History for North Island, CA

Change the Weather History Date:

Tuesday, October 9, 2012

  Actual Average Record
Temperature  
Mean Temperature 70 °F -  
Max Temperature 75 °F 70 °F 91 °F (1999)
Min Temperature 66 °F 59 °F 55 °F (1998)
Cooling Degree Days 6    
Growing Degree Days 20 (Base 50)    
Moisture  
Dew Point 58 °F    
Average Humidity 64    
Maximum Humidity 76    
Minimum Humidity 53    
Precipitation  
Precipitation 0.00 in - - ()
Sea Level Pressure  
Sea Level Pressure 29.96 in    
Wind  
Wind Speed 3 mph (WSW)    
Max Wind Speed 14 mph    
Max Gust Speed -    
Visibility 10 miles    
Events      
Averages and records for this station are not official NWS values.
T = Trace of Precipitation, MM = Missing Value Source: NWS Daily Summary

Daily Weather History Graph

Daily Weather History Graph

Search for Another Location

Airport:

Trip Planner

Search our weather history database for the weather conditions in past years. The results will help you decide how hot, cold, wet, or windy it might be!

Date:

Astronomy

Oct. 09, 2012 Rise Set
Actual Time 6:48 AM PDT 6:22 PM PDT
Civil Twilight 6:24 AM PDT 6:47 PM PDT
Nautical Twilight 5:55 AM PDT 7:15 PM PDT
Astronomical Twilight 5:27 AM PDT 7:44 PM PDT
Moon 12:48 AM PDT (10/9) 2:35 PM PDT (10/9)
Length of Visible Light 12h 22m
Length of Day
11h 33m
Waning Crescent, 35% of the Moon is Illuminated
Oct 9
Waning Crescent
Oct 15
New
Oct 21
First Quarter
Oct 29
Full
Nov 6
Last Quarter

Hourly Weather History & Observations

Time (PDT) Temp. Dew Point Humidity Pressure Visibility Wind Dir Wind Speed Gust Speed Precip Events Conditions
12:52 AM 68.0 °F 60.1 °F 76% 29.97 in 8.0 mi Calm Calm - N/A   Mostly Cloudy
1:52 AM 66.9 °F 59.0 °F 76% 29.97 in 8.0 mi Calm Calm - N/A   Mostly Cloudy
2:52 AM 69.1 °F 59.0 °F 70% 29.96 in 9.0 mi Calm Calm - N/A   Mostly Cloudy
3:52 AM 68.0 °F 60.1 °F 76% 29.96 in 9.0 mi South 3.5 mph - N/A   Mostly Cloudy
4:52 AM 68.0 °F 59.0 °F 73% 29.96 in 9.0 mi South 3.5 mph - N/A   Mostly Cloudy
5:52 AM 68.0 °F 55.9 °F 65% 29.96 in 10.0 mi Calm Calm - N/A   Mostly Cloudy
6:52 AM 69.1 °F 55.9 °F 63% 29.97 in 10.0 mi Calm Calm - N/A   Mostly Cloudy
7:52 AM 70.0 °F 55.9 °F 61% 29.98 in 10.0 mi East 3.5 mph - N/A   Mostly Cloudy
8:52 AM 70.0 °F 55.9 °F 61% 29.99 in 10.0 mi Calm Calm - N/A   Mostly Cloudy
9:52 AM 73.9 °F 55.9 °F 53% 29.99 in 10.0 mi SSE 5.8 mph - N/A   Scattered Clouds
10:52 AM 73.9 °F 55.9 °F 53% 29.98 in 10.0 mi South 6.9 mph - N/A   Scattered Clouds
11:52 AM 75.0 °F 57.0 °F 53% 29.97 in 10.0 mi WSW 8.1 mph - N/A   Scattered Clouds
12:52 PM 75.0 °F 57.9 °F 55% 29.96 in 10.0 mi SW 9.2 mph - N/A   Scattered Clouds
1:52 PM 75.0 °F 57.9 °F 55% 29.94 in 10.0 mi West 11.5 mph - N/A   Scattered Clouds
2:52 PM 75.9 °F 57.9 °F 54% 29.94 in 10.0 mi West 13.8 mph - N/A   Scattered Clouds
3:52 PM 75.0 °F 60.1 °F 60% 29.93 in 10.0 mi WNW 10.4 mph - N/A   Scattered Clouds
4:52 PM 73.0 °F 57.9 °F 59% 29.94 in 10.0 mi West 8.1 mph - N/A   Scattered Clouds
5:52 PM 71.1 °F 57.9 °F 63% 29.94 in 10.0 mi West 8.1 mph - N/A   Scattered Clouds
6:52 PM 69.1 °F 57.9 °F 68% 29.95 in 10.0 mi WNW 9.2 mph - N/A   Mostly Cloudy
7:52 PM 68.0 °F 57.9 °F 70% 29.97 in 10.0 mi WNW 5.8 mph - N/A   Mostly Cloudy
8:52 PM 69.1 °F 57.9 °F 68% 29.98 in 10.0 mi NW 4.6 mph - N/A   Mostly Cloudy
9:52 PM 69.1 °F 57.0 °F 65% 29.98 in 10.0 mi Calm Calm - N/A   Mostly Cloudy
10:52 PM 69.1 °F 57.0 °F 65% 29.98 in 10.0 mi SSE 3.5 mph - N/A   Mostly Cloudy
11:52 PM 69.1 °F 57.9 °F 68% 29.98 in 9.0 mi Calm Calm - N/A   Mostly Cloudy